Year,Month,Day,Hour,Minute,Value (Times are PST for temperature in C)
2015,09,27,00,00,6.10
2015,09,27,00,01,6.10
2015,09,27,00,02,6.10
2015,09,27,00,03,6.10
2015,09,27,00,04,6.10
2015,09,27,00,05,6.10
2015,09,27,00,06,6.10
2015,09,27,00,07,6.10
2015,09,27,00,08,6.10
2015,09,27,00,09,6.10
2015,09,27,00,10,6.10
2015,09,27,00,11,6.10
2015,09,27,00,12,6.10
2015,09,27,00,13,6.20
2015,09,27,00,14,6.20
2015,09,27,00,15,6.20
2015,09,27,00,16,6.20
2015,09,27,00,17,6.20
2015,09,27,00,18,6.20
2015,09,27,00,19,6.30
2015,09,27,00,20,6.30
2015,09,27,00,21,6.30
2015,09,27,00,22,6.30
2015,09,27,00,23,6.30
2015,09,27,00,24,6.30
2015,09,27,00,25,6.30
2015,09,27,00,26,6.30
2015,09,27,00,27,6.30
2015,09,27,00,28,6.30
2015,09,27,00,29,6.30
2015,09,27,00,30,6.20
2015,09,27,00,31,6.20
2015,09,27,00,32,6.20
2015,09,27,00,33,6.20
2015,09,27,00,34,6.20
2015,09,27,00,35,6.20
2015,09,27,00,36,6.20
2015,09,27,00,37,6.20
2015,09,27,00,38,6.20
2015,09,27,00,39,6.20
2015,09,27,00,40,6.20
2015,09,27,00,41,6.30
2015,09,27,00,42,6.30
2015,09,27,00,43,6.30
2015,09,27,00,44,6.30
2015,09,27,00,45,6.30
2015,09,27,00,46,6.30
2015,09,27,00,47,6.30
2015,09,27,00,48,6.30
2015,09,27,00,49,6.30
2015,09,27,00,50,6.30
2015,09,27,00,51,6.30
2015,09,27,00,52,6.30
2015,09,27,00,53,6.30
2015,09,27,00,54,6.30
2015,09,27,00,55,6.30
2015,09,27,00,56,6.30
2015,09,27,00,57,6.30
2015,09,27,00,58,6.30
2015,09,27,00,59,6.30
2015,09,27,01,00,6.20
2015,09,27,01,01,6.20
2015,09,27,01,02,6.20
2015,09,27,01,03,6.20
2015,09,27,01,04,6.10
2015,09,27,01,05,6.10
2015,09,27,01,06,6.10
2015,09,27,01,07,6.00
2015,09,27,01,08,6.00
2015,09,27,01,09,6.00
2015,09,27,01,10,6.00
2015,09,27,01,11,5.90
2015,09,27,01,12,5.90
2015,09,27,01,13,5.90
2015,09,27,01,14,5.90
2015,09,27,01,15,5.90
2015,09,27,01,16,5.80
2015,09,27,01,17,5.80
2015,09,27,01,18,5.80
2015,09,27,01,19,5.80
2015,09,27,01,20,5.80
2015,09,27,01,21,5.80
2015,09,27,01,22,5.80
2015,09,27,01,23,5.80
2015,09,27,01,24,5.70
2015,09,27,01,25,5.70
2015,09,27,01,26,5.70
2015,09,27,01,27,5.70
2015,09,27,01,28,5.70
2015,09,27,01,29,5.60
2015,09,27,01,30,5.60
2015,09,27,01,31,5.60
2015,09,27,01,32,5.50
2015,09,27,01,33,5.50
2015,09,27,01,34,5.50
2015,09,27,01,35,5.40
2015,09,27,01,36,5.40
2015,09,27,01,37,5.40
2015,09,27,01,38,5.40
2015,09,27,01,39,5.40
2015,09,27,01,40,5.40
2015,09,27,01,41,5.40
2015,09,27,01,42,5.40
2015,09,27,01,43,5.40
2015,09,27,01,44,5.40
2015,09,27,01,45,5.40
2015,09,27,01,46,5.40
2015,09,27,01,47,5.40
2015,09,27,01,48,5.40
2015,09,27,01,49,5.40
2015,09,27,01,50,5.40
2015,09,27,01,51,5.40
2015,09,27,01,52,5.40
2015,09,27,01,53,5.40
2015,09,27,01,54,5.40
2015,09,27,01,55,5.50
2015,09,27,01,56,5.50
2015,09,27,01,57,5.50
2015,09,27,01,58,5.50
2015,09,27,01,59,5.50
2015,09,27,02,00,5.60
2015,09,27,02,01,5.60
2015,09,27,02,02,5.60
2015,09,27,02,03,5.60
2015,09,27,02,04,5.60
2015,09,27,02,05,5.60
2015,09,27,02,06,5.60
2015,09,27,02,07,5.50
2015,09,27,02,08,5.50
2015,09,27,02,09,5.40
2015,09,27,02,10,5.40
2015,09,27,02,11,5.40
2015,09,27,02,12,5.30
2015,09,27,02,13,5.30
2015,09,27,02,14,5.30
2015,09,27,02,15,5.30
2015,09,27,02,16,5.20
2015,09,27,02,17,5.20
2015,09,27,02,18,5.20
2015,09,27,02,19,5.20
2015,09,27,02,20,5.10
2015,09,27,02,21,5.10
2015,09,27,02,22,5.00
2015,09,27,02,23,5.00
2015,09,27,02,24,5.00
2015,09,27,02,25,5.00
2015,09,27,02,26,5.00
2015,09,27,02,27,5.00
2015,09,27,02,28,5.00
2015,09,27,02,29,5.00
2015,09,27,02,30,5.10
2015,09,27,02,31,5.10
2015,09,27,02,32,5.10
2015,09,27,02,33,5.20
2015,09,27,02,34,5.20
2015,09,27,02,35,5.20
2015,09,27,02,36,5.30
2015,09,27,02,37,5.30
2015,09,27,02,38,5.30
2015,09,27,02,39,5.20
2015,09,27,02,40,5.20
2015,09,27,02,41,5.20
2015,09,27,02,42,5.20
2015,09,27,02,43,5.20
2015,09,27,02,44,5.10
2015,09,27,02,45,5.10
2015,09,27,02,46,5.10
2015,09,27,02,47,5.00
2015,09,27,02,48,5.00
2015,09,27,02,49,4.90
2015,09,27,02,50,4.90
2015,09,27,02,51,4.90
2015,09,27,02,52,4.80
2015,09,27,02,53,4.80
2015,09,27,02,54,4.80
2015,09,27,02,55,4.80
2015,09,27,02,56,4.80
2015,09,27,02,57,4.80
2015,09,27,02,58,4.70
2015,09,27,02,59,4.70
2015,09,27,03,00,4.70
2015,09,27,03,01,4.60
2015,09,27,03,02,4.60
2015,09,27,03,03,4.60
2015,09,27,03,04,4.60
2015,09,27,03,05,4.60
2015,09,27,03,06,4.50
2015,09,27,03,07,4.50
2015,09,27,03,08,4.40
2015,09,27,03,09,4.40
2015,09,27,03,10,4.40
2015,09,27,03,11,4.40
2015,09,27,03,12,4.40
2015,09,27,03,13,4.40
2015,09,27,03,14,4.40
2015,09,27,03,15,4.40
2015,09,27,03,16,4.40
2015,09,27,03,17,4.40
2015,09,27,03,18,4.40
2015,09,27,03,19,4.50
2015,09,27,03,20,4.50
2015,09,27,03,21,4.60
2015,09,27,03,22,4.60
2015,09,27,03,23,4.70
2015,09,27,03,24,4.70
2015,09,27,03,25,4.80
2015,09,27,03,26,4.80
2015,09,27,03,27,4.80
2015,09,27,03,28,4.70
2015,09,27,03,29,4.70
2015,09,27,03,30,4.60
2015,09,27,03,31,4.60
2015,09,27,03,32,4.50
2015,09,27,03,33,4.50
2015,09,27,03,34,4.40
2015,09,27,03,35,4.40
2015,09,27,03,36,4.40
2015,09,27,03,37,4.40
2015,09,27,03,38,4.40
2015,09,27,03,39,4.40
2015,09,27,03,40,4.40
2015,09,27,03,41,4.30
2015,09,27,03,42,4.30
2015,09,27,03,43,4.30
2015,09,27,03,44,4.20
2015,09,27,03,45,4.20
2015,09,27,03,46,4.20
2015,09,27,03,47,4.20
2015,09,27,03,48,4.10
2015,09,27,03,49,4.10
2015,09,27,03,50,4.10
2015,09,27,03,51,4.10
2015,09,27,03,52,4.10
2015,09,27,03,53,4.10
2015,09,27,03,54,4.10
2015,09,27,03,55,4.00
2015,09,27,03,56,4.00
2015,09,27,03,57,4.00
2015,09,27,03,58,4.00
2015,09,27,03,59,4.00
2015,09,27,04,00,4.00
2015,09,27,04,01,4.00
2015,09,27,04,02,3.90
2015,09,27,04,03,3.90
2015,09,27,04,04,3.90
2015,09,27,04,05,3.90
2015,09,27,04,06,3.90
2015,09,27,04,07,3.80
2015,09,27,04,08,3.80
2015,09,27,04,09,3.80
2015,09,27,04,10,3.80
2015,09,27,04,11,3.80
2015,09,27,04,12,3.80
2015,09,27,04,13,3.80
2015,09,27,04,14,3.80
2015,09,27,04,15,3.80
2015,09,27,04,16,3.80
2015,09,27,04,17,3.80
2015,09,27,04,18,3.90
2015,09,27,04,19,3.90
2015,09,27,04,20,4.00
2015,09,27,04,21,4.00
2015,09,27,04,22,4.00
2015,09,27,04,23,4.00
2015,09,27,04,24,4.00
2015,09,27,04,25,3.90
2015,09,27,04,26,3.90
2015,09,27,04,27,3.90
2015,09,27,04,28,3.90
2015,09,27,04,29,3.90
2015,09,27,04,30,3.90
2015,09,27,04,31,3.90
2015,09,27,04,32,3.90
2015,09,27,04,33,3.90
2015,09,27,04,34,3.90
2015,09,27,04,35,3.90
2015,09,27,04,36,3.90
2015,09,27,04,37,3.90
2015,09,27,04,38,3.90
2015,09,27,04,39,3.90
2015,09,27,04,40,3.80
2015,09,27,04,41,3.80
2015,09,27,04,42,3.80
2015,09,27,04,43,3.80
2015,09,27,04,44,3.80
2015,09,27,04,45,3.80
2015,09,27,04,46,3.80
2015,09,27,04,47,3.70
2015,09,27,04,48,3.70
2015,09,27,04,49,3.70
2015,09,27,04,50,3.70
2015,09,27,04,51,3.60
2015,09,27,04,52,3.60
2015,09,27,04,53,3.50
2015,09,27,04,54,3.50
2015,09,27,04,55,3.40
2015,09,27,04,56,3.40
2015,09,27,04,57,3.30
2015,09,27,04,58,3.30
2015,09,27,04,59,3.30
2015,09,27,05,00,3.30
2015,09,27,05,01,3.30
2015,09,27,05,02,3.20
2015,09,27,05,03,3.20
2015,09,27,05,04,3.20
2015,09,27,05,05,3.20
2015,09,27,05,06,3.20
2015,09,27,05,07,3.20
2015,09,27,05,08,3.20
2015,09,27,05,09,3.20
2015,09,27,05,10,3.20
2015,09,27,05,11,3.20
2015,09,27,05,12,3.20
2015,09,27,05,13,3.20
2015,09,27,05,14,3.20
2015,09,27,05,15,3.20
2015,09,27,05,16,3.20
2015,09,27,05,17,3.30
2015,09,27,05,18,3.30
2015,09,27,05,19,3.40
2015,09,27,05,20,3.40
2015,09,27,05,21,3.50
2015,09,27,05,22,3.50
2015,09,27,05,23,3.50
2015,09,27,05,24,3.60
2015,09,27,05,25,3.60
2015,09,27,05,26,3.60
2015,09,27,05,27,3.60
2015,09,27,05,28,3.60
2015,09,27,05,29,3.50
2015,09,27,05,30,3.50
2015,09,27,05,31,3.40
2015,09,27,05,32,3.40
2015,09,27,05,33,3.40
2015,09,27,05,34,3.30
2015,09,27,05,35,3.30
2015,09,27,05,36,3.30
2015,09,27,05,37,3.30
2015,09,27,05,38,3.20
2015,09,27,05,39,3.20
2015,09,27,05,40,3.20
2015,09,27,05,41,3.20
2015,09,27,05,42,3.20
2015,09,27,05,43,3.10
2015,09,27,05,44,3.10
2015,09,27,05,45,3.10
2015,09,27,05,46,3.10
2015,09,27,05,47,3.10
2015,09,27,05,48,3.10
2015,09,27,05,49,3.10
2015,09,27,05,50,3.10
2015,09,27,05,51,3.10
2015,09,27,05,52,3.10
2015,09,27,05,53,3.10
2015,09,27,05,54,3.10
2015,09,27,05,55,3.10
2015,09,27,05,56,3.10
2015,09,27,05,57,3.10
2015,09,27,05,58,3.00
2015,09,27,05,59,3.00
2015,09,27,06,00,3.00
2015,09,27,06,01,3.00
2015,09,27,06,02,3.00
2015,09,27,06,03,2.90
2015,09,27,06,04,2.90
2015,09,27,06,05,2.90
2015,09,27,06,06,2.90
2015,09,27,06,07,2.90
2015,09,27,06,08,2.80
2015,09,27,06,09,2.80
2015,09,27,06,10,2.80
2015,09,27,06,11,2.80
2015,09,27,06,12,2.80
2015,09,27,06,13,2.80
2015,09,27,06,14,2.80
2015,09,27,06,15,2.80
2015,09,27,06,16,2.80
2015,09,27,06,17,2.80
2015,09,27,06,18,2.80
2015,09,27,06,19,2.80
2015,09,27,06,20,2.80
2015,09,27,06,21,2.80
2015,09,27,06,22,2.80
2015,09,27,06,23,2.80
2015,09,27,06,24,2.80
2015,09,27,06,25,2.80
2015,09,27,06,26,2.90
2015,09,27,06,27,2.90
2015,09,27,06,28,2.90
2015,09,27,06,29,2.90
2015,09,27,06,30,2.90
2015,09,27,06,31,2.90
2015,09,27,06,32,2.90
2015,09,27,06,33,2.90
2015,09,27,06,34,2.90
2015,09,27,06,35,2.90
2015,09,27,06,36,2.90
2015,09,27,06,37,2.90
2015,09,27,06,38,2.80
2015,09,27,06,39,2.80
2015,09,27,06,40,2.80
2015,09,27,06,41,2.70
2015,09,27,06,42,2.70
2015,09,27,06,43,2.70
2015,09,27,06,44,2.70
2015,09,27,06,45,2.70
2015,09,27,06,46,2.60
2015,09,27,06,47,2.60
2015,09,27,06,48,2.60
2015,09,27,06,49,2.60
2015,09,27,06,50,2.60
2015,09,27,06,51,2.60
2015,09,27,06,52,2.60
2015,09,27,06,53,2.60
2015,09,27,06,54,2.60
2015,09,27,06,55,2.60
2015,09,27,06,56,2.60
2015,09,27,06,57,2.60
2015,09,27,06,58,2.60
2015,09,27,06,59,2.60
2015,09,27,07,00,2.60
2015,09,27,07,01,2.60
2015,09,27,07,02,2.60
2015,09,27,07,03,2.60
2015,09,27,07,04,2.60
2015,09,27,07,05,2.70
2015,09,27,07,06,2.70
2015,09,27,07,07,2.70
2015,09,27,07,08,2.70
2015,09,27,07,09,2.80
2015,09,27,07,10,2.80
2015,09,27,07,11,2.80
2015,09,27,07,12,2.80
2015,09,27,07,13,2.80
2015,09,27,07,14,2.80
2015,09,27,07,15,2.80
2015,09,27,07,16,2.80
2015,09,27,07,17,2.70
2015,09,27,07,18,2.70
2015,09,27,07,19,2.70
2015,09,27,07,20,2.70
2015,09,27,07,21,2.70
2015,09,27,07,22,2.70
2015,09,27,07,23,2.70
2015,09,27,07,24,2.70
2015,09,27,07,25,2.70
2015,09,27,07,26,2.70
2015,09,27,07,27,2.70
2015,09,27,07,28,2.70
2015,09,27,07,29,2.70
2015,09,27,07,30,2.80
2015,09,27,07,31,2.80
2015,09,27,07,32,2.80
2015,09,27,07,33,2.80
2015,09,27,07,34,2.80
2015,09,27,07,35,2.80
2015,09,27,07,36,2.80
2015,09,27,07,37,2.80
2015,09,27,07,38,2.80
2015,09,27,07,39,2.80
2015,09,27,07,40,2.80
2015,09,27,07,41,2.80
2015,09,27,07,42,2.80
2015,09,27,07,43,2.80
2015,09,27,07,44,2.80
2015,09,27,07,45,2.90
2015,09,27,07,46,2.90
2015,09,27,07,47,2.90
2015,09,27,07,48,2.90
2015,09,27,07,49,2.90
2015,09,27,07,50,3.00
2015,09,27,07,51,3.00
2015,09,27,07,52,3.10
2015,09,27,07,53,3.10
2015,09,27,07,54,3.10
2015,09,27,07,55,3.10
2015,09,27,07,56,3.20
2015,09,27,07,57,3.20
2015,09,27,07,58,3.20
2015,09,27,07,59,3.20
2015,09,27,08,00,3.20
2015,09,27,08,01,3.30
2015,09,27,08,02,3.40
2015,09,27,08,03,3.40
2015,09,27,08,04,3.40
2015,09,27,08,05,3.50
2015,09,27,08,06,3.60
2015,09,27,08,07,3.60
2015,09,27,08,08,3.60
2015,09,27,08,09,3.70
2015,09,27,08,10,3.70
2015,09,27,08,11,3.70
2015,09,27,08,12,3.80
2015,09,27,08,13,3.80
2015,09,27,08,14,3.90
2015,09,27,08,15,3.90
2015,09,27,08,16,4.00
2015,09,27,08,17,4.10
2015,09,27,08,18,4.20
2015,09,27,08,19,4.30
2015,09,27,08,20,4.40
2015,09,27,08,21,4.50
2015,09,27,08,22,4.50
2015,09,27,08,23,4.60
2015,09,27,08,24,4.70
2015,09,27,08,25,4.70
2015,09,27,08,26,4.80
2015,09,27,08,27,4.80
2015,09,27,08,28,4.90
2015,09,27,08,29,5.00
2015,09,27,08,30,5.00
2015,09,27,08,31,5.10
2015,09,27,08,32,5.20
2015,09,27,08,33,5.30
2015,09,27,08,34,5.40
2015,09,27,08,35,5.50
2015,09,27,08,36,5.60
2015,09,27,08,37,5.70
2015,09,27,08,38,5.80
2015,09,27,08,39,6.00
2015,09,27,08,40,6.10
2015,09,27,08,41,6.20
2015,09,27,08,42,6.30
2015,09,27,08,43,6.40
2015,09,27,08,44,6.40
2015,09,27,08,45,6.50
2015,09,27,08,46,6.60
2015,09,27,08,47,6.60
2015,09,27,08,48,6.70
2015,09,27,08,49,6.80
2015,09,27,08,50,6.80
2015,09,27,08,51,6.90
2015,09,27,08,52,6.90
2015,09,27,08,53,7.00
2015,09,27,08,54,7.10
2015,09,27,08,55,7.20
2015,09,27,08,56,7.30
2015,09,27,08,57,7.40
2015,09,27,08,58,7.40
2015,09,27,08,59,7.50
2015,09,27,09,00,7.60
2015,09,27,09,01,7.70
2015,09,27,09,02,7.70
2015,09,27,09,03,7.80
2015,09,27,09,04,7.80
2015,09,27,09,05,7.90
2015,09,27,09,06,8.00
2015,09,27,09,07,8.10
2015,09,27,09,08,8.20
2015,09,27,09,09,8.30
2015,09,27,09,10,8.40
2015,09,27,09,11,8.50
2015,09,27,09,12,8.70
2015,09,27,09,13,8.70
2015,09,27,09,14,8.90
2015,09,27,09,15,9.00
2015,09,27,09,16,9.10
2015,09,27,09,17,9.20
2015,09,27,09,18,9.30
2015,09,27,09,19,9.30
2015,09,27,09,20,9.40
2015,09,27,09,21,9.50
2015,09,27,09,22,9.60
2015,09,27,09,23,9.70
2015,09,27,09,24,9.80
2015,09,27,09,25,9.90
2015,09,27,09,26,10.00
2015,09,27,09,27,10.10
2015,09,27,09,28,10.20
2015,09,27,09,29,10.30
2015,09,27,09,30,10.40
2015,09,27,09,31,10.50
2015,09,27,09,32,10.70
2015,09,27,09,33,10.80
2015,09,27,09,34,10.90
2015,09,27,09,35,11.00
2015,09,27,09,36,11.10
2015,09,27,09,37,11.20
2015,09,27,09,38,11.30
2015,09,27,09,39,11.30
2015,09,27,09,40,11.40
2015,09,27,09,41,11.40
2015,09,27,09,42,11.50
2015,09,27,09,43,11.50
2015,09,27,09,44,11.60
2015,09,27,09,45,11.60
2015,09,27,09,46,11.60
2015,09,27,09,47,11.60
2015,09,27,09,48,11.60
2015,09,27,09,49,11.70
2015,09,27,09,50,11.70
2015,09,27,09,51,11.70
2015,09,27,09,52,11.70
2015,09,27,09,53,11.70
2015,09,27,09,54,11.80
2015,09,27,09,55,11.80
2015,09,27,09,56,11.90
2015,09,27,09,57,11.90
2015,09,27,09,58,11.90
2015,09,27,09,59,11.90
2015,09,27,10,00,12.00
2015,09,27,10,01,12.00
2015,09,27,10,02,12.00
2015,09,27,10,03,12.00
2015,09,27,10,04,12.00
2015,09,27,10,05,12.00
2015,09,27,10,06,12.00
2015,09,27,10,07,11.90
2015,09,27,10,08,11.90
2015,09,27,10,09,11.90
2015,09,27,10,10,12.00
2015,09,27,10,11,12.00
2015,09,27,10,12,12.00
2015,09,27,10,13,12.00
2015,09,27,10,14,12.10
2015,09,27,10,15,12.10
2015,09,27,10,16,12.20
2015,09,27,10,17,12.20
2015,09,27,10,18,12.20
2015,09,27,10,19,12.10
2015,09,27,10,20,12.10
2015,09,27,10,21,12.10
2015,09,27,10,22,12.20
2015,09,27,10,23,12.20
2015,09,27,10,24,12.20
2015,09,27,10,25,12.20
2015,09,27,10,26,12.30
2015,09,27,10,27,12.30
2015,09,27,10,28,12.30
2015,09,27,10,29,12.30
2015,09,27,10,30,12.30
2015,09,27,10,31,12.30
2015,09,27,10,32,12.40
2015,09,27,10,33,12.40
2015,09,27,10,34,12.40
2015,09,27,10,35,12.40
2015,09,27,10,36,12.40
2015,09,27,10,37,12.40
2015,09,27,10,38,12.50
2015,09,27,10,39,12.50
2015,09,27,10,40,12.60
2015,09,27,10,41,12.60
2015,09,27,10,42,12.60
2015,09,27,10,43,12.70
2015,09,27,10,44,12.70
2015,09,27,10,45,12.70
2015,09,27,10,46,12.80
2015,09,27,10,47,12.80
2015,09,27,10,48,12.90
2015,09,27,10,49,12.90
2015,09,27,10,50,12.90
2015,09,27,10,51,13.00
2015,09,27,10,52,13.00
2015,09,27,10,53,13.00
2015,09,27,10,54,13.00
2015,09,27,10,55,13.00
2015,09,27,10,56,13.10
2015,09,27,10,57,13.20
2015,09,27,10,58,13.20
2015,09,27,10,59,13.30
2015,09,27,11,00,13.30
2015,09,27,11,01,13.30
2015,09,27,11,02,13.40
2015,09,27,11,03,13.30
2015,09,27,11,04,13.30
2015,09,27,11,05,13.30
2015,09,27,11,06,13.30
2015,09,27,11,07,13.30
2015,09,27,11,08,13.40
2015,09,27,11,09,13.40
2015,09,27,11,10,13.40
2015,09,27,11,11,13.40
2015,09,27,11,12,13.50
2015,09,27,11,13,13.50
2015,09,27,11,14,13.40
2015,09,27,11,15,13.40
2015,09,27,11,16,13.40
2015,09,27,11,17,13.40
2015,09,27,11,18,13.30
2015,09,27,11,19,13.30
2015,09,27,11,20,13.30
2015,09,27,11,21,13.40
2015,09,27,11,22,13.40
2015,09,27,11,23,13.40
2015,09,27,11,24,13.40
2015,09,27,11,25,13.40
2015,09,27,11,26,13.40
2015,09,27,11,27,13.40
2015,09,27,11,28,13.40
2015,09,27,11,29,13.50
2015,09,27,11,30,13.50
2015,09,27,11,31,13.70
2015,09,27,11,32,13.70
2015,09,27,11,33,13.80
2015,09,27,11,34,13.80
2015,09,27,11,35,13.90
2015,09,27,11,36,13.90
2015,09,27,11,37,13.90
2015,09,27,11,38,13.80
2015,09,27,11,39,13.80
2015,09,27,11,40,13.70
2015,09,27,11,41,13.80
2015,09,27,11,42,13.80
2015,09,27,11,43,13.70
2015,09,27,11,44,13.70
2015,09,27,11,45,13.70
2015,09,27,11,46,13.70
2015,09,27,11,47,13.70
2015,09,27,11,48,13.70
2015,09,27,11,49,13.70
2015,09,27,11,50,13.70
2015,09,27,11,51,13.70
2015,09,27,11,52,13.80
2015,09,27,11,53,13.80
2015,09,27,11,54,13.90
2015,09,27,11,55,13.90
2015,09,27,11,56,13.80
2015,09,27,11,57,13.80
2015,09,27,11,58,13.70
2015,09,27,11,59,13.70
2015,09,27,12,00,13.70
2015,09,27,12,01,13.70
2015,09,27,12,02,13.70
2015,09,27,12,03,13.70
2015,09,27,12,04,13.70
2015,09,27,12,05,13.60
2015,09,27,12,06,13.60
2015,09,27,12,07,13.60
2015,09,27,12,08,13.50
2015,09,27,12,09,13.50
2015,09,27,12,10,13.50
2015,09,27,12,11,13.50
2015,09,27,12,12,13.50
2015,09,27,12,13,13.50
2015,09,27,12,14,13.50
2015,09,27,12,15,13.50
2015,09,27,12,16,13.50
2015,09,27,12,17,13.60
2015,09,27,12,18,13.60
2015,09,27,12,19,13.60
2015,09,27,12,20,13.60
2015,09,27,12,21,13.50
2015,09,27,12,22,13.40
2015,09,27,12,23,13.40
2015,09,27,12,24,13.30
2015,09,27,12,25,13.40
2015,09,27,12,26,13.40
2015,09,27,12,27,13.40
2015,09,27,12,28,13.50
2015,09,27,12,29,13.50
2015,09,27,12,30,13.50
2015,09,27,12,31,13.60
2015,09,27,12,32,13.70
2015,09,27,12,33,13.70
2015,09,27,12,34,13.60
2015,09,27,12,35,13.60
2015,09,27,12,36,13.60
2015,09,27,12,37,13.60
2015,09,27,12,38,13.60
2015,09,27,12,39,13.60
2015,09,27,12,40,13.60
2015,09,27,12,41,13.60
2015,09,27,12,42,13.60
2015,09,27,12,43,13.60
2015,09,27,12,44,13.60
2015,09,27,12,45,13.70
2015,09,27,12,46,13.70
2015,09,27,12,47,13.80
2015,09,27,12,48,13.80
2015,09,27,12,49,13.80
2015,09,27,12,50,13.90
2015,09,27,12,51,13.90
2015,09,27,12,52,13.90
2015,09,27,12,53,14.00
2015,09,27,12,54,14.00
2015,09,27,12,55,14.10
2015,09,27,12,56,14.00
2015,09,27,12,57,14.00
2015,09,27,12,58,14.00
2015,09,27,12,59,14.00
2015,09,27,13,00,14.00
2015,09,27,13,01,14.00
2015,09,27,13,02,14.00
2015,09,27,13,03,14.00
2015,09,27,13,04,14.00
2015,09,27,13,05,14.00
2015,09,27,13,06,14.00
2015,09,27,13,07,14.00
2015,09,27,13,08,13.90
2015,09,27,13,09,13.90
2015,09,27,13,10,13.80
2015,09,27,13,11,13.80
2015,09,27,13,12,13.80
2015,09,27,13,13,13.80
2015,09,27,13,14,13.80
2015,09,27,13,15,13.80
2015,09,27,13,16,13.80
2015,09,27,13,17,13.80
2015,09,27,13,18,13.80
2015,09,27,13,19,13.90
2015,09,27,13,20,14.00
2015,09,27,13,21,14.10
2015,09,27,13,22,14.20
2015,09,27,13,23,14.30
2015,09,27,13,24,14.40
2015,09,27,13,25,14.40
2015,09,27,13,26,14.30
2015,09,27,13,27,14.30
2015,09,27,13,28,14.30
2015,09,27,13,29,14.30
2015,09,27,13,30,14.30
2015,09,27,13,31,14.20
2015,09,27,13,32,14.20
2015,09,27,13,33,14.20
2015,09,27,13,34,14.20
2015,09,27,13,35,14.20
2015,09,27,13,36,14.30
2015,09,27,13,37,14.30
2015,09,27,13,38,14.30
2015,09,27,13,39,14.40
2015,09,27,13,40,14.40
2015,09,27,13,41,14.40
2015,09,27,13,42,14.50
2015,09,27,13,43,14.50
2015,09,27,13,44,14.60
2015,09,27,13,45,14.60
2015,09,27,13,46,14.60
2015,09,27,13,47,14.60
2015,09,27,13,48,14.50
2015,09,27,13,49,14.50
2015,09,27,13,50,14.50
2015,09,27,13,51,14.50
2015,09,27,13,52,14.50
2015,09,27,13,53,14.60
2015,09,27,13,54,14.60
2015,09,27,13,55,14.70
2015,09,27,13,56,14.80
2015,09,27,13,57,14.80
2015,09,27,13,58,14.80
2015,09,27,13,59,14.80
2015,09,27,14,00,14.80
2015,09,27,14,01,14.80
2015,09,27,14,02,14.80
2015,09,27,14,03,14.80
2015,09,27,14,04,14.80
2015,09,27,14,05,14.80
2015,09,27,14,06,14.80
2015,09,27,14,07,14.80
2015,09,27,14,08,14.80
2015,09,27,14,09,14.90
2015,09,27,14,10,14.90
2015,09,27,14,11,14.90
2015,09,27,14,12,14.90
2015,09,27,14,13,14.90
2015,09,27,14,14,14.90
2015,09,27,14,15,14.90
2015,09,27,14,16,15.00
2015,09,27,14,17,15.00
2015,09,27,14,18,15.00
2015,09,27,14,19,15.00
2015,09,27,14,20,15.00
2015,09,27,14,21,15.10
2015,09,27,14,22,15.10
2015,09,27,14,23,15.10
2015,09,27,14,24,15.10
2015,09,27,14,25,15.10
2015,09,27,14,26,15.10
2015,09,27,14,27,15.10
2015,09,27,14,28,15.10
2015,09,27,14,29,15.20
2015,09,27,14,30,15.20
2015,09,27,14,31,15.30
2015,09,27,14,32,15.40
2015,09,27,14,33,15.40
2015,09,27,14,34,15.50
2015,09,27,14,35,15.60
2015,09,27,14,36,15.60
2015,09,27,14,37,15.60
2015,09,27,14,38,15.60
2015,09,27,14,39,15.60
2015,09,27,14,40,15.60
2015,09,27,14,41,15.60
2015,09,27,14,42,15.50
2015,09,27,14,43,15.40
2015,09,27,14,44,15.40
2015,09,27,14,45,15.40
2015,09,27,14,46,15.40
2015,09,27,14,47,15.40
2015,09,27,14,48,15.50
2015,09,27,14,49,15.50
2015,09,27,14,50,15.50
2015,09,27,14,51,15.60
2015,09,27,14,52,15.60
2015,09,27,14,53,15.60
2015,09,27,14,54,15.60
2015,09,27,14,55,15.60
2015,09,27,14,56,15.60
2015,09,27,14,57,15.60
2015,09,27,14,58,15.60
2015,09,27,14,59,15.60
2015,09,27,15,00,15.60
2015,09,27,15,01,15.60
2015,09,27,15,02,15.60
2015,09,27,15,03,15.60
2015,09,27,15,04,15.60
2015,09,27,15,05,15.60
2015,09,27,15,06,15.60
2015,09,27,15,07,15.70
2015,09,27,15,08,15.70
2015,09,27,15,09,15.70
2015,09,27,15,10,15.70
2015,09,27,15,11,15.70
2015,09,27,15,12,15.80
2015,09,27,15,13,15.90
2015,09,27,15,14,15.90
2015,09,27,15,15,15.90
2015,09,27,15,16,15.80
2015,09,27,15,17,15.70
2015,09,27,15,18,15.60
2015,09,27,15,19,15.50
2015,09,27,15,20,15.40
2015,09,27,15,21,15.30
2015,09,27,15,22,15.30
2015,09,27,15,23,15.20
2015,09,27,15,24,15.30
2015,09,27,15,25,15.20
2015,09,27,15,26,15.20
2015,09,27,15,27,15.20
2015,09,27,15,28,15.30
2015,09,27,15,29,15.30
2015,09,27,15,30,15.30
2015,09,27,15,31,15.30
2015,09,27,15,32,15.30
2015,09,27,15,33,15.30
2015,09,27,15,34,15.30
2015,09,27,15,35,15.30
2015,09,27,15,36,15.30
2015,09,27,15,37,15.40
2015,09,27,15,38,15.40
2015,09,27,15,39,15.50
2015,09,27,15,40,15.50
2015,09,27,15,41,15.50
2015,09,27,15,42,15.50
2015,09,27,15,43,15.50
2015,09,27,15,44,15.40
2015,09,27,15,45,15.40
2015,09,27,15,46,15.40
2015,09,27,15,47,15.30
2015,09,27,15,48,15.30
2015,09,27,15,49,15.20
2015,09,27,15,50,15.10
2015,09,27,15,51,15.10
2015,09,27,15,52,15.10
2015,09,27,15,53,15.10
2015,09,27,15,54,15.10
2015,09,27,15,55,15.10
2015,09,27,15,56,15.10
2015,09,27,15,57,15.10
2015,09,27,15,58,15.20
2015,09,27,15,59,15.20
2015,09,27,16,00,15.20
2015,09,27,16,01,15.30
2015,09,27,16,02,15.30
2015,09,27,16,03,15.40
2015,09,27,16,04,15.50
2015,09,27,16,05,15.50
2015,09,27,16,06,15.60
2015,09,27,16,07,15.60
2015,09,27,16,08,15.60
2015,09,27,16,09,15.60
2015,09,27,16,10,15.70
2015,09,27,16,11,15.70
2015,09,27,16,12,15.80
2015,09,27,16,13,15.80
2015,09,27,16,14,15.80
2015,09,27,16,15,15.70
2015,09,27,16,16,15.70
2015,09,27,16,17,15.70
2015,09,27,16,18,15.70
2015,09,27,16,19,15.70
2015,09,27,16,20,15.70
2015,09,27,16,21,15.70
2015,09,27,16,22,15.70
2015,09,27,16,23,15.80
2015,09,27,16,24,15.80
2015,09,27,16,25,15.90
2015,09,27,16,26,16.00
2015,09,27,16,27,16.00
2015,09,27,16,28,16.00
2015,09,27,16,29,16.00
2015,09,27,16,30,16.00
2015,09,27,16,31,15.90
2015,09,27,16,32,15.90
2015,09,27,16,33,15.90
2015,09,27,16,34,15.90
2015,09,27,16,35,15.90
2015,09,27,16,36,15.90
2015,09,27,16,37,15.90
2015,09,27,16,38,16.00
2015,09,27,16,39,16.00
2015,09,27,16,40,16.00
2015,09,27,16,41,16.00
2015,09,27,16,42,15.90
2015,09,27,16,43,15.80
2015,09,27,16,44,15.80
2015,09,27,16,45,15.70
2015,09,27,16,46,15.70
2015,09,27,16,47,15.60
2015,09,27,16,48,15.60
2015,09,27,16,49,15.60
2015,09,27,16,50,15.60
2015,09,27,16,51,15.60
2015,09,27,16,52,15.60
2015,09,27,16,53,15.60
2015,09,27,16,54,15.70
2015,09,27,16,55,15.70
2015,09,27,16,56,15.70
2015,09,27,16,57,15.70
2015,09,27,16,58,15.80
2015,09,27,16,59,15.80
2015,09,27,17,00,15.80
2015,09,27,17,01,15.80
2015,09,27,17,02,15.80
2015,09,27,17,03,15.80
2015,09,27,17,04,15.80
2015,09,27,17,05,15.80
2015,09,27,17,06,15.80
2015,09,27,17,07,15.80
2015,09,27,17,08,15.90
2015,09,27,17,09,15.90
2015,09,27,17,10,16.00
2015,09,27,17,11,16.00
2015,09,27,17,12,16.00
2015,09,27,17,13,16.00
2015,09,27,17,14,16.10
2015,09,27,17,15,16.10
2015,09,27,17,16,16.10
2015,09,27,17,17,16.20
2015,09,27,17,18,16.20
2015,09,27,17,19,16.30
2015,09,27,17,20,16.30
2015,09,27,17,21,16.30
2015,09,27,17,22,16.30
2015,09,27,17,23,16.20
2015,09,27,17,24,16.00
2015,09,27,17,25,15.80
2015,09,27,17,26,15.60
2015,09,27,17,27,15.40
2015,09,27,17,28,15.30
2015,09,27,17,29,15.20
2015,09,27,17,30,15.10
2015,09,27,17,31,15.00
2015,09,27,17,32,15.00
2015,09,27,17,33,14.90
2015,09,27,17,34,14.90
2015,09,27,17,35,14.80
2015,09,27,17,36,14.80
2015,09,27,17,37,14.70
2015,09,27,17,38,14.70
2015,09,27,17,39,14.70
2015,09,27,17,40,14.60
2015,09,27,17,41,14.60
2015,09,27,17,42,14.60
2015,09,27,17,43,14.70
2015,09,27,17,44,14.70